{"data":{"norad_id":55927,"intl_designator":"2023-037P","name":"STARLINK-5919","alt_names":[],"object_type":"PAYLOAD","status":"ACTIVE","operator":null,"country":"US","launch_date":"2023-03-17","launch_site_code":"AFWTR","launch_vehicle":null,"mission":null,"orbit_class":"UNKNOWN","rcs_meters":null,"size_class":null,"mass_kg":null,"dimensions":null,"purposes":["comms"],"wikipedia_slug":null,"has_3d_model":false,"image_url":null,"decayed_at":null,"tle_current":{"epoch":"2026-05-25T03:39:19.554624Z","epoch_age_seconds":72617,"freshness":"FRESH","line1":"1 55927U 23037P   26145.15230966 -.00000176  00000+0 -69681-5 0  9993","line2":"2 55927  69.9989 111.5435 0003429 266.2816  93.7951 14.98331559174935","mean_motion":14.98331559,"eccentricity":0.0003429,"inclination_deg":69.9989,"raan_deg":111.5435,"arg_perigee_deg":266.2816,"mean_anomaly_deg":93.7951,"bstar":-6.9681e-6,"rev_number":17493,"period_min":96.106899127258,"perigee_km":569.66785038054,"apogee_km":574.43428935886,"semimajor_km":6950.1880698697,"source":"CELESTRAK","updated_at":"2026-05-25T13:38:17.912892Z"}}}